Time,TemperatureF,DewpointF,PressureIn,WindDirection,WindDirectionDegrees,WindSpeedMPH,WindSpeedGustMPH,Humidity,HourlyPrecipIn,Conditions,Clouds,dailyrainin,SoftwareType,DateUTC
2013-09-18 00:02:00,69.0,51.6,30.00,South,180,6.0,18.0,54,0.00,,,0.00,Weather View 32 v70,2013-09-18 06:02:00,
2013-09-18 00:07:00,70.0,52.0,30.00,South,180,2.0,15.0,53,0.00,,,0.00,Weather View 32 v70,2013-09-18 06:07:00,
2013-09-18 00:12:00,69.0,51.6,30.00,South,180,9.0,17.0,54,0.00,,,0.00,Weather View 32 v70,2013-09-18 06:12:00,
2013-09-18 00:17:00,70.0,52.5,30.00,South,180,5.0,17.0,54,0.00,,,0.00,Weather View 32 v70,2013-09-18 06:17:00,
2013-09-18 00:22:00,69.0,52.1,30.00,South,180,14.0,17.0,55,0.00,,,0.00,Weather View 32 v70,2013-09-18 06:22:00,
2013-09-18 00:27:00,69.0,52.1,30.00,SE,135,8.0,17.0,55,0.00,,,0.00,Weather View 32 v70,2013-09-18 06:27:00,
2013-09-18 00:32:00,69.0,52.1,30.00,SE,135,4.0,17.0,55,0.00,,,0.00,Weather View 32 v70,2013-09-18 06:32:00,
2013-09-18 00:37:00,69.0,52.1,30.00,SE,135,9.0,17.0,55,0.00,,,0.00,Weather View 32 v70,2013-09-18 06:37:00,
2013-09-18 00:42:00,69.0,52.1,30.00,SE,135,10.0,17.0,55,0.00,,,0.00,Weather View 32 v70,2013-09-18 06:42:00,
2013-09-18 00:47:00,69.0,52.1,30.00,South,180,7.0,17.0,55,0.00,,,0.00,Weather View 32 v70,2013-09-18 06:47:00,
2013-09-18 00:52:00,69.0,52.1,30.00,East,90,3.0,17.0,55,0.00,,,0.00,Weather View 32 v70,2013-09-18 06:52:00,
2013-09-18 00:57:00,69.0,52.1,30.00,ENE,67,4.0,17.0,55,0.00,,,0.00,Weather View 32 v70,2013-09-18 06:57:00,
2013-09-18 01:02:00,69.0,52.1,30.00,SE,135,4.0,17.0,55,0.00,,,0.00,Weather View 32 v70,2013-09-18 07:02:00,
2013-09-18 01:07:00,69.0,52.1,30.00,East,90,1.0,17.0,55,0.00,,,0.00,Weather View 32 v70,2013-09-18 07:07:00,
2013-09-18 01:12:00,69.0,52.6,30.00,East,90,2.0,17.0,56,0.00,,,0.00,Weather View 32 v70,2013-09-18 07:12:00,
2013-09-18 01:17:00,69.0,52.1,30.00,East,90,3.0,17.0,55,0.00,,,0.00,Weather View 32 v70,2013-09-18 07:17:00,
2013-09-18 01:22:00,68.0,51.2,30.00,ENE,67,6.0,17.0,55,0.00,,,0.00,Weather View 32 v70,2013-09-18 07:22:00,
2013-09-18 01:27:00,69.0,51.6,30.00,SE,135,3.0,17.0,54,0.00,,,0.00,Weather View 32 v70,2013-09-18 07:27:00,
2013-09-18 01:32:00,68.0,51.2,30.00,SE,135,4.0,14.0,55,0.00,,,0.00,Weather View 32 v70,2013-09-18 07:32:00,
2013-09-18 01:37:00,69.0,52.1,30.00,SE,135,2.0,14.0,55,0.00,,,0.00,Weather View 32 v70,2013-09-18 07:37:00,
2013-09-18 01:42:00,68.0,51.7,30.00,SE,135,0.0,14.0,56,0.00,,,0.00,Weather View 32 v70,2013-09-18 07:42:00,
2013-09-18 01:47:00,68.0,51.2,30.01,SE,135,1.0,10.0,55,0.00,,,0.00,Weather View 32 v70,2013-09-18 07:47:00,
2013-09-18 01:52:00,68.0,51.7,30.01,SE,135,0.0,10.0,56,0.00,,,0.00,Weather View 32 v70,2013-09-18 07:52:00,
2013-09-18 01:57:00,68.0,52.2,30.01,NE,45,4.0,10.0,57,0.00,,,0.00,Weather View 32 v70,2013-09-18 07:57:00,
2013-09-18 02:03:00,68.0,53.1,30.01,NNE,22,5.0,10.0,59,0.00,,,0.00,Weather View 32 v70,2013-09-18 08:03:00,
2013-09-18 02:08:00,67.0,52.6,30.01,NNE,22,0.0,8.0,60,0.00,,,0.00,Weather View 32 v70,2013-09-18 08:08:00,
2013-09-18 02:13:00,67.0,54.0,30.01,NNE,22,3.0,8.0,63,0.00,,,0.00,Weather View 32 v70,2013-09-18 08:13:00,
2013-09-18 02:18:00,67.0,54.0,30.02,NNE,22,4.0,8.0,63,0.00,,,0.00,Weather View 32 v70,2013-09-18 08:18:00,
2013-09-18 02:23:00,66.0,52.6,30.02,NNE,22,7.0,8.0,62,0.00,,,0.00,Weather View 32 v70,2013-09-18 08:23:00,
2013-09-18 02:28:00,66.0,52.6,30.02,NNE,22,6.0,8.0,62,0.00,,,0.00,Weather View 32 v70,2013-09-18 08:28:00,
2013-09-18 02:33:00,66.0,53.0,30.02,NNE,22,5.0,8.0,63,0.00,,,0.00,Weather View 32 v70,2013-09-18 08:33:00,
2013-09-18 02:38:00,66.0,53.4,30.02,NNE,22,3.0,8.0,64,0.00,,,0.00,Weather View 32 v70,2013-09-18 08:38:00,
2013-09-18 02:43:00,66.0,53.9,30.02,NNE,22,3.0,8.0,65,0.00,,,0.00,Weather View 32 v70,2013-09-18 08:43:00,
2013-09-18 02:48:00,65.0,52.9,30.02,NNE,22,2.0,8.0,65,0.00,,,0.00,Weather View 32 v70,2013-09-18 08:48:00,
2013-09-18 02:53:00,65.0,52.9,30.02,NNE,22,6.0,8.0,65,0.00,,,0.00,Weather View 32 v70,2013-09-18 08:53:00,
2013-09-18 02:58:00,65.0,52.9,30.02,NNE,22,4.0,8.0,65,0.00,,,0.00,Weather View 32 v70,2013-09-18 08:58:00,
2013-09-18 03:03:00,65.0,52.9,30.02,NNE,22,2.0,8.0,65,0.00,,,0.00,Weather View 32 v70,2013-09-18 09:03:00,
2013-09-18 03:08:00,65.0,53.3,30.02,ENE,67,5.0,8.0,66,0.00,,,0.00,Weather View 32 v70,2013-09-18 09:08:00,
2013-09-18 03:13:00,65.0,54.2,30.02,ENE,67,3.0,8.0,68,0.00,,,0.00,Weather View 32 v70,2013-09-18 09:13:00,
2013-09-18 03:18:00,64.0,53.6,30.02,ENE,67,3.0,8.0,69,0.00,,,0.00,Weather View 32 v70,2013-09-18 09:18:00,
2013-09-18 03:23:00,64.0,53.2,30.02,ENE,67,3.0,8.0,68,0.00,,,0.00,Weather View 32 v70,2013-09-18 09:23:00,
2013-09-18 03:28:00,64.0,53.6,30.01,ENE,67,2.0,7.0,69,0.00,,,0.00,Weather View 32 v70,2013-09-18 09:28:00,
2013-09-18 03:33:00,64.0,53.6,30.01,ENE,67,3.0,7.0,69,0.00,,,0.00,Weather View 32 v70,2013-09-18 09:33:00,
2013-09-18 03:38:00,64.0,53.2,30.02,ENE,67,0.0,7.0,68,0.00,,,0.00,Weather View 32 v70,2013-09-18 09:38:00,
2013-09-18 03:43:00,64.0,53.6,30.02,ENE,67,4.0,7.0,69,0.00,,,0.00,Weather View 32 v70,2013-09-18 09:43:00,
2013-09-18 03:48:00,64.0,54.0,30.02,ENE,67,4.0,7.0,70,0.00,,,0.00,Weather View 32 v70,2013-09-18 09:48:00,
2013-09-18 03:53:00,64.0,54.4,30.02,ENE,67,5.0,7.0,71,0.00,,,0.00,Weather View 32 v70,2013-09-18 09:53:00,
2013-09-18 03:58:00,63.0,53.4,30.02,NE,45,6.0,7.0,71,0.00,,,0.00,Weather View 32 v70,2013-09-18 09:58:00,
2013-09-18 04:03:00,63.0,53.4,30.02,NE,45,6.0,7.0,71,0.00,,,0.00,Weather View 32 v70,2013-09-18 10:03:00,
2013-09-18 04:08:00,63.0,53.8,30.02,NE,45,5.0,7.0,72,0.00,,,0.00,Weather View 32 v70,2013-09-18 10:08:00,
2013-09-18 04:13:00,63.0,54.2,30.02,ENE,67,5.0,8.0,73,0.00,,,0.00,Weather View 32 v70,2013-09-18 10:13:00,
2013-09-18 04:18:00,63.0,54.6,30.02,NE,45,4.0,8.0,74,0.00,,,0.00,Weather View 32 v70,2013-09-18 10:18:00,
2013-09-18 04:23:00,62.0,54.0,30.02,NE,45,7.0,8.0,75,0.00,,,0.00,Weather View 32 v70,2013-09-18 10:23:00,
2013-09-18 04:28:00,62.0,54.0,30.02,NNE,22,6.0,8.0,75,0.00,,,0.00,Weather View 32 v70,2013-09-18 10:28:00,
2013-09-18 04:33:00,62.0,53.6,30.02,NE,45,4.0,8.0,74,0.00,,,0.00,Weather View 32 v70,2013-09-18 10:33:00,
2013-09-18 04:38:00,62.0,54.0,30.02,NE,45,2.0,8.0,75,0.00,,,0.00,Weather View 32 v70,2013-09-18 10:38:00,
2013-09-18 04:43:00,62.0,54.3,30.02,NE,45,3.0,8.0,76,0.00,,,0.00,Weather View 32 v70,2013-09-18 10:43:00,
2013-09-18 04:48:00,62.0,54.0,30.02,NE,45,5.0,8.0,75,0.00,,,0.00,Weather View 32 v70,2013-09-18 10:48:00,
2013-09-18 04:53:00,62.0,54.0,30.02,NE,45,6.0,8.0,75,0.00,,,0.00,Weather View 32 v70,2013-09-18 10:53:00,
2013-09-18 04:58:00,62.0,54.7,30.02,ENE,67,6.0,8.0,77,0.00,,,0.00,Weather View 32 v70,2013-09-18 10:58:00,
2013-09-18 05:03:00,62.0,54.7,30.02,ENE,67,5.0,8.0,77,0.00,,,0.00,Weather View 32 v70,2013-09-18 11:03:00,
2013-09-18 05:08:00,61.0,53.7,30.02,ENE,67,3.0,8.0,77,0.00,,,0.00,Weather View 32 v70,2013-09-18 11:08:00,
2013-09-18 05:13:00,61.0,54.4,30.02,ENE,67,6.0,8.0,79,0.00,,,0.00,Weather View 32 v70,2013-09-18 11:13:00,
2013-09-18 05:18:00,61.0,54.4,30.02,NE,45,7.0,9.0,79,0.00,,,0.00,Weather View 32 v70,2013-09-18 11:18:00,
2013-09-18 05:23:00,61.0,54.4,30.02,NE,45,5.0,9.0,79,0.00,,,0.00,Weather View 32 v70,2013-09-18 11:23:00,
2013-09-18 05:29:00,61.0,54.4,30.03,ENE,67,6.0,9.0,79,0.00,,,0.00,Weather View 32 v70,2013-09-18 11:29:00,
2013-09-18 05:34:00,61.0,54.4,30.03,ENE,67,5.0,9.0,79,0.00,,,0.00,Weather View 32 v70,2013-09-18 11:34:00,
2013-09-18 05:39:00,61.0,54.4,30.03,NE,45,5.0,9.0,79,0.00,,,0.00,Weather View 32 v70,2013-09-18 11:39:00,
2013-09-18 05:44:00,61.0,54.4,30.03,NE,45,5.0,9.0,79,0.00,,,0.00,Weather View 32 v70,2013-09-18 11:44:00,
2013-09-18 05:49:00,61.0,54.4,30.03,NE,45,5.0,9.0,79,0.00,,,0.00,Weather View 32 v70,2013-09-18 11:49:00,
2013-09-18 05:54:00,61.0,54.4,30.03,NE,45,5.0,9.0,79,0.00,,,0.00,Weather View 32 v70,2013-09-18 11:54:00,
2013-09-18 05:59:00,61.0,54.4,30.03,NE,45,5.0,9.0,79,0.00,,,0.00,Weather View 32 v70,2013-09-18 11:59:00,
2013-09-18 06:04:00,61.0,54.8,30.03,NE,45,6.0,9.0,80,0.00,,,0.00,Weather View 32 v70,2013-09-18 12:04:00,
2013-09-18 06:09:00,60.0,53.8,30.03,NE,45,7.0,9.0,80,0.00,,,0.00,Weather View 32 v70,2013-09-18 12:09:00,
2013-09-18 06:14:00,60.0,53.8,30.03,ENE,67,6.0,9.0,80,0.00,,,0.00,Weather View 32 v70,2013-09-18 12:14:00,
2013-09-18 06:19:00,60.0,54.5,30.03,NE,45,6.0,9.0,82,0.00,,,0.00,Weather View 32 v70,2013-09-18 12:19:00,
2013-09-18 06:24:00,60.0,54.8,30.03,ENE,67,5.0,9.0,83,0.00,,,0.00,Weather View 32 v70,2013-09-18 12:24:00,
2013-09-18 06:29:00,60.0,55.5,30.04,ENE,67,6.0,9.0,85,0.00,,,0.00,Weather View 32 v70,2013-09-18 12:29:00,
2013-09-18 06:34:00,60.0,55.5,30.04,East,90,5.0,10.0,85,0.00,,,0.00,Weather View 32 v70,2013-09-18 12:34:00,
2013-09-18 06:40:00,60.0,56.1,30.04,ENE,67,5.0,10.0,87,0.00,,,0.00,Weather View 32 v70,2013-09-18 12:40:00,
2013-09-18 06:45:00,59.0,55.4,30.04,East,90,6.0,10.0,88,0.00,,,0.00,Weather View 32 v70,2013-09-18 12:45:00,
2013-09-18 06:50:00,59.0,55.4,30.04,ENE,67,5.0,10.0,88,0.00,,,0.00,Weather View 32 v70,2013-09-18 12:50:00,
2013-09-18 06:55:00,59.0,56.1,30.04,East,90,7.0,10.0,90,0.00,,,0.00,Weather View 32 v70,2013-09-18 12:55:00,
2013-09-18 07:00:00,59.0,56.1,30.03,East,90,6.0,10.0,90,0.00,,,0.00,Weather View 32 v70,2013-09-18 13:00:00,
2013-09-18 07:05:00,59.0,56.4,30.03,NE,45,4.0,10.0,91,0.00,,,0.00,Weather View 32 v70,2013-09-18 13:05:00,
2013-09-18 07:10:00,59.0,56.1,30.04,NE,45,6.0,10.0,90,0.00,,,0.00,Weather View 32 v70,2013-09-18 13:10:00,
2013-09-18 07:15:00,59.0,55.8,30.04,NE,45,6.0,12.0,89,0.00,,,0.00,Weather View 32 v70,2013-09-18 13:15:00,
2013-09-18 07:20:00,59.0,55.1,30.04,ENE,67,7.0,12.0,87,0.00,,,0.00,Weather View 32 v70,2013-09-18 13:20:00,
2013-09-18 07:25:00,60.0,55.5,30.04,East,90,6.0,12.0,85,0.00,,,0.00,Weather View 32 v70,2013-09-18 13:25:00,
2013-09-18 07:30:00,60.0,54.5,30.04,NE,45,7.0,12.0,82,0.00,,,0.00,Weather View 32 v70,2013-09-18 13:30:00,
2013-09-18 07:35:00,61.0,54.8,30.04,East,90,7.0,12.0,80,0.00,,,0.00,Weather View 32 v70,2013-09-18 13:35:00,
2013-09-18 07:40:00,61.0,54.1,30.04,NE,45,7.0,12.0,78,0.00,,,0.00,Weather View 32 v70,2013-09-18 13:40:00,
2013-09-18 07:45:00,62.0,53.6,30.04,NE,45,3.0,12.0,74,0.00,,,0.00,Weather View 32 v70,2013-09-18 13:45:00,
2013-09-18 07:50:00,63.0,52.2,30.05,NE,45,6.0,12.0,68,0.00,,,0.00,Weather View 32 v70,2013-09-18 13:50:00,
2013-09-18 07:55:00,64.0,52.4,30.05,NE,45,5.0,12.0,66,0.00,,,0.00,Weather View 32 v70,2013-09-18 13:55:00,
2013-09-18 08:00:00,65.0,53.7,30.05,NE,45,5.0,12.0,67,0.00,,,0.00,Weather View 32 v70,2013-09-18 14:00:00,
2013-09-18 08:05:00,65.0,54.2,30.05,North,360,5.0,12.0,68,0.00,,,0.00,Weather View 32 v70,2013-09-18 14:05:00,
2013-09-18 08:10:00,65.0,56.1,30.07,NW,315,8.0,16.0,73,0.00,,,0.00,Weather View 32 v70,2013-09-18 14:10:00,
2013-09-18 08:15:00,64.0,59.4,30.07,NW,315,4.0,16.0,85,0.01,,,0.01,Weather View 32 v70,2013-09-18 14:15:00,
2013-09-18 08:20:00,63.0,60.9,30.07,NW,315,6.0,16.0,93,0.03,,,0.03,Weather View 32 v70,2013-09-18 14:20:00,
2013-09-18 08:25:00,61.0,61.0,30.07,North,360,7.0,16.0,100,0.06,,,0.06,Weather View 32 v70,2013-09-18 14:25:00,
2013-09-18 08:30:00,60.0,60.0,30.08,NNE,22,9.0,16.0,100,0.10,,,0.10,Weather View 32 v70,2013-09-18 14:30:00,
2013-09-18 08:35:00,60.0,60.0,30.08,NNE,22,9.0,16.0,100,0.11,,,0.11,Weather View 32 v70,2013-09-18 14:35:00,
2013-09-18 08:40:00,59.0,59.0,30.08,North,360,10.0,16.0,100,0.12,,,0.14,Weather View 32 v70,2013-09-18 14:40:00,
2013-09-18 08:45:00,59.0,59.0,30.08,NNE,22,6.0,16.0,100,0.19,,,0.19,Weather View 32 v70,2013-09-18 14:45:00,
2013-09-18 08:50:00,59.0,59.0,30.08,NE,45,7.0,16.0,100,0.21,,,0.21,Weather View 32 v70,2013-09-18 14:50:00,
2013-09-18 08:55:00,59.0,59.0,30.08,NE,45,7.0,16.0,100,0.21,,,0.21,Weather View 32 v70,2013-09-18 14:55:00,
2013-09-18 09:00:00,59.0,59.0,30.07,ENE,67,4.0,16.0,100,0.21,,,0.21,Weather View 32 v70,2013-09-18 15:00:00,
2013-09-18 09:05:00,59.0,59.0,30.07,East,90,5.0,16.0,100,0.21,,,0.21,Weather View 32 v70,2013-09-18 15:05:00,
2013-09-18 09:10:00,59.0,59.0,30.08,East,90,3.0,16.0,100,0.21,,,0.21,Weather View 32 v70,2013-09-18 15:10:00,
2013-09-18 09:15:00,59.0,59.0,30.08,East,90,3.0,14.0,100,0.20,,,0.21,Weather View 32 v70,2013-09-18 15:15:00,
2013-09-18 09:20:00,59.0,59.0,30.08,East,90,3.0,14.0,100,0.18,,,0.21,Weather View 32 v70,2013-09-18 15:20:00,
2013-09-18 09:25:00,60.0,60.0,30.08,East,90,2.0,14.0,100,0.15,,,0.21,Weather View 32 v70,2013-09-18 15:25:00,
2013-09-18 09:30:00,60.0,60.0,30.08,East,90,4.0,14.0,100,0.11,,,0.21,Weather View 32 v70,2013-09-18 15:30:00,
2013-09-18 09:35:00,61.0,61.0,30.08,NE,45,6.0,14.0,100,0.10,,,0.21,Weather View 32 v70,2013-09-18 15:35:00,
2013-09-18 09:40:00,62.0,62.0,30.08,ENE,67,6.0,14.0,100,0.07,,,0.21,Weather View 32 v70,2013-09-18 15:40:00,
2013-09-18 09:45:00,63.0,61.8,30.08,NE,45,7.0,14.0,96,0.02,,,0.21,Weather View 32 v70,2013-09-18 15:45:00,
2013-09-18 09:50:00,64.0,64.0,30.07,ENE,67,7.0,14.0,100,0.00,,,0.21,Weather View 32 v70,2013-09-18 15:50:00,
2013-09-18 09:55:00,64.0,62.5,30.07,ENE,67,6.0,13.0,95,0.00,,,0.21,Weather View 32 v70,2013-09-18 15:55:00,
2013-09-18 10:00:00,64.0,61.6,30.07,NE,45,13.0,16.0,92,0.00,,,0.21,Weather View 32 v70,2013-09-18 16:00:00,
2013-09-18 10:01:00,64.0,61.9,30.07,East,90,11.0,17.0,93,0.00,,,0.21,Weather View 32 v70,2013-09-18 16:01:00,
2013-09-18 10:06:00,64.0,62.8,30.07,ENE,67,10.0,18.0,96,0.00,,,0.21,Weather View 32 v70,2013-09-18 16:06:00,
2013-09-18 10:11:00,64.0,61.6,30.06,ENE,67,9.0,18.0,92,0.00,,,0.21,Weather View 32 v70,2013-09-18 16:11:00,
2013-09-18 10:16:00,64.0,59.4,30.06,NE,45,12.0,19.0,85,0.00,,,0.21,Weather View 32 v70,2013-09-18 16:16:00,
2013-09-18 10:21:00,65.0,59.0,30.07,NE,45,11.0,19.0,81,0.00,,,0.21,Weather View 32 v70,2013-09-18 16:21:00,
2013-09-18 10:26:00,65.0,58.3,30.07,NE,45,12.0,19.0,79,0.00,,,0.21,Weather View 32 v70,2013-09-18 16:26:00,
2013-09-18 10:31:00,66.0,57.1,30.06,North,360,10.0,19.0,73,0.00,,,0.21,Weather View 32 v70,2013-09-18 16:31:00,
2013-09-18 10:36:00,66.0,53.9,30.06,East,90,9.0,19.0,65,-0.21,,,0.21,Weather View 32 v70,2013-09-18 16:36:00,
2013-09-18 10:41:00,67.0,55.2,30.06,ENE,67,10.0,19.0,66,0.00,,,0.21,Weather View 32 v70,2013-09-18 16:41:00,
2013-09-18 10:46:00,68.0,56.6,30.06,East,90,13.0,19.0,67,0.00,,,0.21,Weather View 32 v70,2013-09-18 16:46:00,
2013-09-18 10:51:00,68.0,55.8,30.06,East,90,7.0,19.0,65,0.00,,,0.21,Weather View 32 v70,2013-09-18 16:51:00,
2013-09-18 10:56:00,68.0,55.8,30.06,East,90,9.0,19.0,65,0.00,,,0.21,Weather View 32 v70,2013-09-18 16:56:00,
2013-09-18 11:01:00,69.0,55.8,30.05,East,90,10.0,19.0,63,0.00,,,0.21,Weather View 32 v70,2013-09-18 17:01:00,
2013-09-18 11:06:00,69.0,55.0,30.05,East,90,10.0,19.0,61,0.00,,,0.21,Weather View 32 v70,2013-09-18 17:06:00,
2013-09-18 11:11:00,70.0,55.4,30.04,East,90,10.0,19.0,60,0.00,,,0.21,Weather View 32 v70,2013-09-18 17:11:00,
2013-09-18 11:16:00,70.0,55.0,30.04,East,90,11.0,17.0,59,0.00,,,0.21,Weather View 32 v70,2013-09-18 17:16:00,
2013-09-18 11:21:00,70.0,54.5,30.04,East,90,10.0,17.0,58,0.00,,,0.21,Weather View 32 v70,2013-09-18 17:21:00,
2013-09-18 11:26:00,70.0,54.0,30.04,East,90,9.0,17.0,57,0.00,,,0.21,Weather View 32 v70,2013-09-18 17:26:00,
2013-09-18 11:31:00,70.0,55.0,30.04,ENE,67,9.0,17.0,59,0.00,,,0.21,Weather View 32 v70,2013-09-18 17:31:00,
2013-09-18 11:37:00,71.0,55.0,30.03,NE,45,8.0,17.0,57,0.00,,,0.21,Weather View 32 v70,2013-09-18 17:37:00,
2013-09-18 11:42:00,71.0,54.5,30.03,NE,45,12.0,17.0,56,0.00,,,0.21,Weather View 32 v70,2013-09-18 17:42:00,
2013-09-18 11:47:00,71.0,54.5,30.03,ENE,67,9.0,17.0,56,0.00,,,0.21,Weather View 32 v70,2013-09-18 17:47:00,
2013-09-18 11:52:00,71.0,54.5,30.03,NE,45,11.0,17.0,56,0.00,,,0.21,Weather View 32 v70,2013-09-18 17:52:00,
2013-09-18 11:57:00,72.0,54.4,30.02,NE,45,10.0,17.0,54,0.00,,,0.21,Weather View 32 v70,2013-09-18 17:57:00,
2013-09-18 12:02:00,72.0,54.9,30.02,ENE,67,9.0,17.0,55,0.00,,,0.21,Weather View 32 v70,2013-09-18 18:02:00,
2013-09-18 12:07:00,73.0,54.8,30.02,East,90,10.0,17.0,53,0.00,,,0.21,Weather View 32 v70,2013-09-18 18:07:00,
2013-09-18 12:12:00,73.0,55.8,30.02,East,90,10.0,17.0,55,0.00,,,0.21,Weather View 32 v70,2013-09-18 18:12:00,
2013-09-18 12:17:00,74.0,55.7,30.02,ENE,67,8.0,17.0,53,0.00,,,0.21,Weather View 32 v70,2013-09-18 18:17:00,
2013-09-18 12:22:00,74.0,55.7,30.02,NE,45,9.0,18.0,53,0.00,,,0.21,Weather View 32 v70,2013-09-18 18:22:00,
2013-09-18 12:27:00,74.0,54.7,30.01,East,90,9.0,18.0,51,0.00,,,0.21,Weather View 32 v70,2013-09-18 18:27:00,
2013-09-18 12:32:00,75.0,55.0,30.01,East,90,10.0,18.0,50,0.00,,,0.21,Weather View 32 v70,2013-09-18 18:32:00,
2013-09-18 12:37:00,75.0,53.9,30.00,East,90,11.0,18.0,48,0.00,,,0.21,Weather View 32 v70,2013-09-18 18:37:00,
2013-09-18 12:42:00,75.0,55.6,30.00,ENE,67,9.0,18.0,51,0.00,,,0.21,Weather View 32 v70,2013-09-18 18:42:00,
2013-09-18 12:47:00,75.0,55.0,30.00,NE,45,12.0,18.0,50,0.00,,,0.21,Weather View 32 v70,2013-09-18 18:47:00,
2013-09-18 12:52:00,75.0,55.0,30.00,ENE,67,12.0,18.0,50,0.00,,,0.21,Weather View 32 v70,2013-09-18 18:52:00,
2013-09-18 12:57:00,75.0,55.0,29.98,East,90,8.0,18.0,50,0.00,,,0.21,Weather View 32 v70,2013-09-18 18:57:00,
2013-09-18 13:02:00,75.0,53.9,29.98,East,90,1.0,18.0,48,0.00,,,0.21,Weather View 32 v70,2013-09-18 19:02:00,
2013-09-18 13:07:00,75.0,55.6,29.99,East,90,10.0,18.0,51,0.00,,,0.21,Weather View 32 v70,2013-09-18 19:07:00,
2013-09-18 13:12:00,75.0,56.7,29.99,East,90,7.0,18.0,53,0.00,,,0.21,Weather View 32 v70,2013-09-18 19:12:00,
2013-09-18 13:17:00,74.0,55.2,30.00,East,90,4.0,18.0,52,0.00,,,0.21,Weather View 32 v70,2013-09-18 19:17:00,
2013-09-18 13:22:00,73.0,55.8,30.00,ENE,67,7.0,17.0,55,0.00,,,0.21,Weather View 32 v70,2013-09-18 19:22:00,
2013-09-18 13:27:00,73.0,56.3,29.99,East,90,6.0,17.0,56,0.00,,,0.21,Weather View 32 v70,2013-09-18 19:27:00,
2013-09-18 13:32:00,73.0,57.8,29.99,East,90,10.0,17.0,59,0.00,,,0.21,Weather View 32 v70,2013-09-18 19:32:00,
2013-09-18 13:37:00,72.0,56.8,29.99,ENE,67,4.0,17.0,59,0.00,,,0.21,Weather View 32 v70,2013-09-18 19:37:00,
2013-09-18 13:42:00,72.0,56.8,29.99,East,90,6.0,17.0,59,0.00,,,0.21,Weather View 32 v70,2013-09-18 19:42:00,
2013-09-18 13:47:00,72.0,56.4,29.98,ENE,67,10.0,17.0,58,0.00,,,0.21,Weather View 32 v70,2013-09-18 19:47:00,
2013-09-18 13:52:00,72.0,56.4,29.98,East,90,9.0,16.0,58,0.00,,,0.21,Weather View 32 v70,2013-09-18 19:52:00,
2013-09-18 13:57:00,72.0,56.4,29.99,East,90,7.0,15.0,58,0.00,,,0.21,Weather View 32 v70,2013-09-18 19:57:00,
2013-09-18 14:03:00,72.0,56.8,29.99,East,90,8.0,15.0,59,0.00,,,0.21,Weather View 32 v70,2013-09-18 20:03:00,
2013-09-18 14:08:00,73.0,55.8,29.97,East,90,10.0,15.0,55,0.00,,,0.21,Weather View 32 v70,2013-09-18 20:08:00,
2013-09-18 14:13:00,73.0,54.3,29.97,ENE,67,11.0,15.0,52,0.00,,,0.21,Weather View 32 v70,2013-09-18 20:13:00,
2013-09-18 14:18:00,74.0,53.6,29.95,ENE,67,6.0,14.0,49,0.00,,,0.21,Weather View 32 v70,2013-09-18 20:18:00,
2013-09-18 14:23:00,75.0,53.9,29.95,East,90,6.0,14.0,48,0.00,,,0.21,Weather View 32 v70,2013-09-18 20:23:00,
2013-09-18 14:28:00,75.0,52.2,29.94,SE,135,9.0,14.0,45,0.00,,,0.21,Weather View 32 v70,2013-09-18 20:28:00,
2013-09-18 14:33:00,76.0,52.4,29.94,East,90,10.0,19.0,44,0.00,,,0.21,Weather View 32 v70,2013-09-18 20:33:00,
2013-09-18 14:38:00,76.0,53.1,29.95,East,90,9.0,19.0,45,0.00,,,0.21,Weather View 32 v70,2013-09-18 20:38:00,
2013-09-18 14:43:00,76.0,49.2,29.95,ESE,112,8.0,19.0,39,0.00,,,0.21,Weather View 32 v70,2013-09-18 20:43:00,
2013-09-18 14:48:00,76.0,56.5,29.93,SE,135,6.0,19.0,51,0.00,,,0.21,Weather View 32 v70,2013-09-18 20:48:00,
2013-09-18 14:53:00,77.0,57.4,29.93,ESE,112,6.0,19.0,51,0.00,,,0.21,Weather View 32 v70,2013-09-18 20:53:00,
2013-09-18 14:58:00,76.0,53.7,29.93,SE,135,14.0,19.0,46,0.00,,,0.21,Weather View 32 v70,2013-09-18 20:58:00,
2013-09-18 15:04:00,77.0,54.6,29.93,SE,135,7.0,19.0,46,0.00,,,0.21,Weather View 32 v70,2013-09-18 21:04:00,
2013-09-18 15:09:00,77.0,55.7,29.93,SE,135,10.0,19.0,48,0.00,,,0.21,Weather View 32 v70,2013-09-18 21:09:00,
2013-09-18 15:14:00,77.0,55.7,29.93,East,90,6.0,19.0,48,0.00,,,0.21,Weather View 32 v70,2013-09-18 21:14:00,
2013-09-18 15:19:00,77.0,55.7,29.93,SE,135,7.0,19.0,48,0.00,,,0.21,Weather View 32 v70,2013-09-18 21:19:00,
2013-09-18 15:23:00,77.0,54.6,29.93,East,90,10.0,19.0,46,0.00,,,0.21,Weather View 32 v70,2013-09-18 21:23:00,
2013-09-18 15:28:00,77.0,54.6,29.93,East,90,7.0,19.0,46,0.00,,,0.21,Weather View 32 v70,2013-09-18 21:28:00,
2013-09-18 15:33:00,76.0,53.1,29.93,East,90,8.0,17.0,45,0.00,,,0.21,Weather View 32 v70,2013-09-18 21:33:00,
2013-09-18 15:39:00,76.0,54.8,29.92,East,90,8.0,18.0,48,0.00,,,0.21,Weather View 32 v70,2013-09-18 21:39:00,
2013-09-18 15:44:00,76.0,54.2,29.92,East,90,7.0,19.0,47,0.00,,,0.21,Weather View 32 v70,2013-09-18 21:44:00,
2013-09-18 15:49:00,76.0,54.2,29.92,SE,135,10.0,19.0,47,0.00,,,0.21,Weather View 32 v70,2013-09-18 21:49:00,
2013-09-18 15:54:00,76.0,55.4,29.92,SE,135,9.0,20.0,49,0.00,,,0.21,Weather View 32 v70,2013-09-18 21:54:00,
2013-09-18 15:59:00,76.0,55.4,29.92,East,90,11.0,20.0,49,0.00,,,0.21,Weather View 32 v70,2013-09-18 21:59:00,
2013-09-18 16:04:00,76.0,54.8,29.92,East,90,16.0,20.0,48,0.00,,,0.21,Weather View 32 v70,2013-09-18 22:04:00,
2013-09-18 16:09:00,75.0,53.9,29.92,East,90,12.0,20.0,48,0.00,,,0.21,Weather View 32 v70,2013-09-18 22:09:00,
2013-09-18 16:14:00,75.0,51.5,29.92,East,90,7.0,20.0,44,0.00,,,0.21,Weather View 32 v70,2013-09-18 22:14:00,
2013-09-18 16:19:00,75.0,50.9,29.92,ESE,112,11.0,20.0,43,0.00,,,0.21,Weather View 32 v70,2013-09-18 22:19:00,
2013-09-18 16:24:00,76.0,52.4,29.92,SE,135,11.0,20.0,44,0.00,,,0.21,Weather View 32 v70,2013-09-18 22:24:00,
2013-09-18 16:29:00,76.0,51.8,29.92,East,90,9.0,20.0,43,0.00,,,0.21,Weather View 32 v70,2013-09-18 22:29:00,
2013-09-18 16:34:00,76.0,54.2,29.92,SE,135,16.0,20.0,47,0.00,,,0.21,Weather View 32 v70,2013-09-18 22:34:00,
2013-09-18 16:39:00,75.0,53.9,29.92,SE,135,7.0,22.0,48,0.00,,,0.21,Weather View 32 v70,2013-09-18 22:39:00,
2013-09-18 16:45:00,75.0,53.3,29.92,East,90,4.0,22.0,47,0.00,,,0.21,Weather View 32 v70,2013-09-18 22:45:00,
2013-09-18 16:50:00,74.0,52.4,29.92,SE,135,14.0,22.0,47,0.00,,,0.21,Weather View 32 v70,2013-09-18 22:50:00,
2013-09-18 16:55:00,73.0,52.1,29.92,SE,135,7.0,22.0,48,0.00,,,0.21,Weather View 32 v70,2013-09-18 22:55:00,
2013-09-18 17:00:00,72.0,52.3,29.94,SE,135,10.0,22.0,50,0.00,,,0.21,Weather View 32 v70,2013-09-18 23:00:00,
2013-09-18 17:05:00,72.0,52.8,29.94,SE,135,11.0,22.0,51,0.00,,,0.21,Weather View 32 v70,2013-09-18 23:05:00,
2013-09-18 17:10:00,72.0,53.4,29.94,SE,135,4.0,22.0,52,0.00,,,0.21,Weather View 32 v70,2013-09-18 23:10:00,
2013-09-18 17:15:00,72.0,52.3,29.94,East,90,10.0,22.0,50,0.00,,,0.21,Weather View 32 v70,2013-09-18 23:15:00,
2013-09-18 17:20:00,73.0,53.7,29.94,SE,135,6.0,22.0,51,0.00,,,0.21,Weather View 32 v70,2013-09-18 23:20:00,
2013-09-18 17:25:00,73.0,53.2,29.94,SE,135,5.0,22.0,50,0.00,,,0.21,Weather View 32 v70,2013-09-18 23:25:00,
2013-09-18 17:30:00,73.0,53.2,29.94,East,90,9.0,22.0,50,0.00,,,0.21,Weather View 32 v70,2013-09-18 23:30:00,
2013-09-18 17:35:00,72.0,52.3,29.94,ESE,112,6.0,22.0,50,0.00,,,0.21,Weather View 32 v70,2013-09-18 23:35:00,
2013-09-18 17:40:00,72.0,52.3,29.93,SE,135,6.0,19.0,50,0.00,,,0.21,Weather View 32 v70,2013-09-18 23:40:00,
2013-09-18 17:45:00,72.0,52.8,29.93,ESE,112,7.0,19.0,51,0.00,,,0.21,Weather View 32 v70,2013-09-18 23:45:00,
2013-09-18 17:50:00,72.0,52.8,29.93,SE,135,2.0,19.0,51,0.00,,,0.21,Weather View 32 v70,2013-09-18 23:50:00,
2013-09-18 17:55:00,72.0,52.3,29.93,South,180,2.0,16.0,50,0.00,,,0.21,Weather View 32 v70,2013-09-18 23:55:00,
2013-09-18 18:00:00,71.0,60.3,29.94,NE,45,6.0,16.0,69,0.03,,,0.24,Weather View 32 v70,2013-09-19 00:00:00,
2013-09-18 18:05:00,69.0,61.8,29.94,ENE,67,7.0,16.0,78,0.03,,,0.24,Weather View 32 v70,2013-09-19 00:05:00,
2013-09-18 18:10:00,68.0,58.2,29.93,East,90,8.0,16.0,71,0.03,,,0.24,Weather View 32 v70,2013-09-19 00:10:00,
2013-09-18 18:15:00,67.0,56.1,29.93,East,90,7.0,15.0,68,0.03,,,0.24,Weather View 32 v70,2013-09-19 00:15:00,
2013-09-18 18:20:00,68.0,59.4,29.94,East,90,6.0,13.0,74,0.03,,,0.24,Weather View 32 v70,2013-09-19 00:20:00,
2013-09-18 18:25:00,68.0,59.8,29.94,East,90,7.0,13.0,75,0.03,,,0.24,Weather View 32 v70,2013-09-19 00:25:00,
2013-09-18 18:30:00,68.0,58.6,29.93,East,90,9.0,13.0,72,0.03,,,0.24,Weather View 32 v70,2013-09-19 00:30:00,
2013-09-18 18:35:00,69.0,56.7,29.93,East,90,4.0,13.0,65,0.03,,,0.24,Weather View 32 v70,2013-09-19 00:35:00,
2013-09-18 18:41:00,69.0,57.1,29.94,East,90,3.0,13.0,66,0.03,,,0.24,Weather View 32 v70,2013-09-19 00:41:00,
2013-09-18 18:46:00,68.0,55.8,29.94,ESE,112,6.0,13.0,65,0.03,,,0.24,Weather View 32 v70,2013-09-19 00:46:00,
2013-09-18 18:51:00,67.0,54.8,29.94,SE,135,7.0,13.0,65,0.03,,,0.24,Weather View 32 v70,2013-09-19 00:51:00,
2013-09-18 18:56:00,67.0,56.1,29.94,East,90,6.0,13.0,68,0.02,,,0.24,Weather View 32 v70,2013-09-19 00:56:00,
2013-09-18 19:01:00,66.0,55.1,29.95,East,90,4.0,13.0,68,0.01,,,0.25,Weather View 32 v70,2013-09-19 01:01:00,
2013-09-18 19:06:00,66.0,56.3,29.95,East,90,6.0,13.0,71,0.01,,,0.25,Weather View 32 v70,2013-09-19 01:06:00,
2013-09-18 19:11:00,66.0,55.9,29.95,East,90,8.0,13.0,70,0.01,,,0.25,Weather View 32 v70,2013-09-19 01:11:00,
2013-09-18 19:16:00,66.0,55.5,29.95,East,90,6.0,13.0,69,0.01,,,0.25,Weather View 32 v70,2013-09-19 01:16:00,
2013-09-18 19:21:00,67.0,56.1,29.94,East,90,8.0,13.0,68,0.01,,,0.25,Weather View 32 v70,2013-09-19 01:21:00,
2013-09-18 19:26:00,67.0,55.2,29.94,East,90,4.0,13.0,66,0.01,,,0.25,Weather View 32 v70,2013-09-19 01:26:00,
2013-09-18 19:31:00,67.0,56.5,29.94,East,90,8.0,13.0,69,0.01,,,0.25,Weather View 32 v70,2013-09-19 01:31:00,
2013-09-18 19:36:00,67.0,56.5,29.94,East,90,6.0,13.0,69,0.01,,,0.25,Weather View 32 v70,2013-09-19 01:36:00,
2013-09-18 19:41:00,67.0,56.9,29.94,East,90,7.0,13.0,70,0.01,,,0.25,Weather View 32 v70,2013-09-19 01:41:00,
2013-09-18 19:46:00,67.0,57.6,29.94,ENE,67,5.0,13.0,72,0.01,,,0.25,Weather View 32 v70,2013-09-19 01:46:00,
2013-09-18 19:51:00,66.0,57.1,29.95,ENE,67,9.0,13.0,73,0.01,,,0.25,Weather View 32 v70,2013-09-19 01:51:00,
2013-09-18 19:56:00,66.0,57.1,29.95,ENE,67,9.0,13.0,73,0.01,,,0.25,Weather View 32 v70,2013-09-19 01:56:00,
2013-09-18 20:01:00,66.0,56.7,29.96,NE,45,6.0,13.0,72,0.00,,,0.25,Weather View 32 v70,2013-09-19 02:01:00,
2013-09-18 20:06:00,66.0,56.7,29.96,ENE,67,12.0,13.0,72,0.00,,,0.25,Weather View 32 v70,2013-09-19 02:06:00,
2013-09-18 20:11:00,66.0,56.7,29.96,ENE,67,8.0,13.0,72,0.00,,,0.25,Weather View 32 v70,2013-09-19 02:11:00,
2013-09-18 20:16:00,66.0,57.4,29.96,NE,45,14.0,14.0,74,0.00,,,0.25,Weather View 32 v70,2013-09-19 02:16:00,
2013-09-18 20:21:00,65.0,56.5,29.97,NE,45,10.0,14.0,74,0.00,,,0.25,Weather View 32 v70,2013-09-19 02:21:00,
2013-09-18 20:26:00,65.0,56.5,29.97,ENE,67,8.0,20.0,74,0.00,,,0.25,Weather View 32 v70,2013-09-19 02:26:00,
2013-09-18 20:32:00,65.0,55.7,29.97,ENE,67,12.0,20.0,72,0.00,,,0.25,Weather View 32 v70,2013-09-19 02:32:00,
2013-09-18 20:37:00,65.0,55.3,29.98,East,90,12.0,20.0,71,0.00,,,0.25,Weather View 32 v70,2013-09-19 02:37:00,
2013-09-18 20:42:00,64.0,55.1,29.98,ENE,67,11.0,20.0,73,0.00,,,0.25,Weather View 32 v70,2013-09-19 02:42:00,
2013-09-18 20:47:00,64.0,55.1,29.98,East,90,5.0,20.0,73,0.00,,,0.25,Weather View 32 v70,2013-09-19 02:47:00,
2013-09-18 20:52:00,63.0,54.2,29.98,ENE,67,10.0,20.0,73,0.00,,,0.25,Weather View 32 v70,2013-09-19 02:52:00,
2013-09-18 20:57:00,63.0,54.2,29.98,NE,45,10.0,20.0,73,0.00,,,0.25,Weather View 32 v70,2013-09-19 02:57:00,
2013-09-18 21:02:00,62.0,53.6,29.98,East,90,11.0,20.0,74,0.00,,,0.25,Weather View 32 v70,2013-09-19 03:02:00,
2013-09-18 21:08:00,62.0,53.2,29.99,NE,45,10.0,20.0,73,0.00,,,0.25,Weather View 32 v70,2013-09-19 03:08:00,
2013-09-18 21:13:00,62.0,53.6,29.99,ENE,67,13.0,20.0,74,0.00,,,0.25,Weather View 32 v70,2013-09-19 03:13:00,
2013-09-18 21:18:00,61.0,52.6,30.00,ENE,67,10.0,20.0,74,0.00,,,0.25,Weather View 32 v70,2013-09-19 03:18:00,
2013-09-18 21:24:00,61.0,52.6,30.00,NE,45,11.0,20.0,74,0.00,,,0.25,Weather View 32 v70,2013-09-19 03:24:00,
2013-09-18 21:29:00,61.0,52.3,30.00,NE,45,10.0,19.0,73,0.00,,,0.25,Weather View 32 v70,2013-09-19 03:29:00,
2013-09-18 21:34:00,61.0,52.3,30.00,NE,45,11.0,19.0,73,0.00,,,0.25,Weather View 32 v70,2013-09-19 03:34:00,
2013-09-18 21:39:00,61.0,52.6,30.00,East,90,8.0,19.0,74,0.00,,,0.25,Weather View 32 v70,2013-09-19 03:39:00,
2013-09-18 21:44:00,60.0,52.0,30.00,East,90,9.0,19.0,75,0.00,,,0.25,Weather View 32 v70,2013-09-19 03:44:00,
2013-09-18 21:49:00,60.0,52.0,30.01,NE,45,10.0,19.0,75,0.00,,,0.25,Weather View 32 v70,2013-09-19 03:49:00,
2013-09-18 21:54:00,60.0,52.0,30.01,NE,45,11.0,19.0,75,0.00,,,0.25,Weather View 32 v70,2013-09-19 03:54:00,
2013-09-18 21:59:00,60.0,52.0,30.01,ENE,67,10.0,19.0,75,0.00,,,0.25,Weather View 32 v70,2013-09-19 03:59:00,
2013-09-18 22:01:00,60.0,52.4,30.01,NE,45,7.0,19.0,76,0.00,,,0.25,Weather View 32 v70,2013-09-19 04:01:00,
2013-09-18 22:06:00,60.0,52.0,30.01,ENE,67,9.0,19.0,75,0.00,,,0.25,Weather View 32 v70,2013-09-19 04:06:00,
2013-09-18 22:08:00,60.0,52.0,30.01,East,90,9.0,19.0,75,0.00,,,0.25,Weather View 32 v70,2013-09-19 04:08:00,
2013-09-18 22:13:00,60.0,52.8,30.01,ENE,67,2.0,19.0,77,0.00,,,0.25,Weather View 32 v70,2013-09-19 04:13:00,
2013-09-18 22:18:00,60.0,52.4,30.02,NE,45,5.0,19.0,76,0.00,,,0.25,Weather View 32 v70,2013-09-19 04:18:00,
2013-09-18 22:23:00,60.0,52.4,30.02,ENE,67,8.0,19.0,76,0.00,,,0.25,Weather View 32 v70,2013-09-19 04:23:00,
2013-09-18 22:28:00,59.0,51.8,30.02,East,90,11.0,19.0,77,0.00,,,0.25,Weather View 32 v70,2013-09-19 04:28:00,
2013-09-18 22:33:00,59.0,51.8,30.02,NE,45,6.0,17.0,77,0.00,,,0.25,Weather View 32 v70,2013-09-19 04:33:00,
2013-09-18 22:38:00,59.0,51.4,30.02,NE,45,4.0,17.0,76,0.00,,,0.25,Weather View 32 v70,2013-09-19 04:38:00,
2013-09-18 22:43:00,59.0,51.4,30.02,NE,45,0.0,17.0,76,0.00,,,0.25,Weather View 32 v70,2013-09-19 04:43:00,
2013-09-18 22:48:00,59.0,51.4,30.02,East,90,5.0,15.0,76,0.00,,,0.25,Weather View 32 v70,2013-09-19 04:48:00,
2013-09-18 22:53:00,59.0,51.8,30.02,ENE,67,6.0,15.0,77,0.00,,,0.25,Weather View 32 v70,2013-09-19 04:53:00,
2013-09-18 22:58:00,59.0,51.8,30.02,East,90,10.0,15.0,77,0.00,,,0.25,Weather View 32 v70,2013-09-19 04:58:00,
2013-09-18 23:03:00,59.0,51.8,30.02,East,90,6.0,15.0,77,0.00,,,0.25,Weather View 32 v70,2013-09-19 05:03:00,
2013-09-18 23:08:00,59.0,51.8,30.02,East,90,0.0,15.0,77,0.00,,,0.25,Weather View 32 v70,2013-09-19 05:08:00,
2013-09-18 23:13:00,59.0,52.1,30.02,East,90,0.0,15.0,78,0.00,,,0.25,Weather View 32 v70,2013-09-19 05:13:00,
2013-09-18 23:18:00,59.0,52.5,30.03,East,90,3.0,15.0,79,0.00,,,0.25,Weather View 32 v70,2013-09-19 05:18:00,
2013-09-18 23:23:00,58.0,51.2,30.03,NE,45,7.0,15.0,78,0.00,,,0.25,Weather View 32 v70,2013-09-19 05:23:00,
2013-09-18 23:28:00,59.0,52.1,30.03,East,90,6.0,15.0,78,0.00,,,0.25,Weather View 32 v70,2013-09-19 05:28:00,
2013-09-18 23:33:00,58.0,51.5,30.03,East,90,7.0,14.0,79,0.00,,,0.25,Weather View 32 v70,2013-09-19 05:33:00,
2013-09-18 23:38:00,58.0,51.5,30.03,East,90,7.0,13.0,79,0.00,,,0.25,Weather View 32 v70,2013-09-19 05:38:00,
2013-09-18 23:43:00,58.0,51.8,30.03,East,90,9.0,11.0,80,0.00,,,0.25,Weather View 32 v70,2013-09-19 05:43:00,
2013-09-18 23:48:00,58.0,51.8,30.03,East,90,5.0,12.0,80,0.00,,,0.25,Weather View 32 v70,2013-09-19 05:48:00,
2013-09-18 23:53:00,58.0,52.2,30.03,East,90,7.0,12.0,81,0.00,,,0.25,Weather View 32 v70,2013-09-19 05:53:00,
2013-09-18 23:58:00,58.0,52.2,30.03,ENE,67,3.0,12.0,81,0.00,,,0.25,Weather View 32 v70,2013-09-19 05:58:00,